Volver al catálogo

STARLINK-1357

ActivoComunicacionesVLEO
NORAD 45565·PAYLOAD·🇺🇸 United States

Lanzado Apr 22, 2020 desde Cape Canaveral Space Force Station

Loading…

Próximos Pases (próximas 24 horas)

TLE

ActualizadoSource: CelesTrak SupGP

Época: Sep 14, 2026, 21:21 UTC

1 45565C 20025AL  26257.89006944  .00086871  00000+0  38787-3 0  2578
2 45565  53.0355 182.4123 0007284  96.7901 192.9454 15.83442924    19

Sigue STARLINK-1357 en tiempo real con AllMySat

Download on the App Store